GUG702 MGGT-MNMG

Flight info

Callsign GUG702
Flight time N/A
Altitude 35000
Route VILDA2 KAPAN UG436 CAT UA317 URPOS
Aircraft A320/M-SDE3FGHIRWY/LB1

Departure

Time N/A
Airport La Aurora International Airport (MGGT)

Arrival

Time 2026-04-25 13:37
Airport Augusto C. Sandino (Managua) International Airport (MNMG)
Time Latitude Longitude Altitude Speed Heading
2026-04-25 13:06 13.41051 -89.03073 34756 ft 442 kts 109°
2026-04-25 13:06 13.39797 -89.00182 34756 ft 442 kts 109°
2026-04-25 13:07 13.37275 -88.94423 34756 ft 442 kts 109°
2026-04-25 13:07 13.34764 -88.88699 34757 ft 442 kts 109°
2026-04-25 13:08 13.32246 -88.82935 34757 ft 442 kts 109°
2026-04-25 13:08 13.29725 -88.77174 34758 ft 442 kts 109°
2026-04-25 13:09 13.27202 -88.71406 34758 ft 443 kts 109°
2026-04-25 13:09 13.24681 -88.65644 34759 ft 443 kts 109°
2026-04-25 13:10 13.22156 -88.59886 34759 ft 443 kts 109°
2026-04-25 13:10 13.19628 -88.54129 34759 ft 443 kts 109°
2026-04-25 13:11 13.17097 -88.48369 34760 ft 443 kts 109°
2026-04-25 13:11 13.14572 -88.42613 34760 ft 443 kts 109°
2026-04-25 13:12 13.12056 -88.36894 34760 ft 443 kts 109°
2026-04-25 13:12 13.09936 -88.32073 34761 ft 443 kts 109°
2026-04-25 13:13 13.06991 -88.25386 34760 ft 443 kts 109°
2026-04-25 13:13 13.04456 -88.19631 34761 ft 443 kts 109°
2026-04-25 13:14 13.01920 -88.13876 34761 ft 443 kts 109°
2026-04-25 13:14 12.99388 -88.08124 34761 ft 443 kts 109°
2026-04-25 13:15 12.96850 -88.02374 34761 ft 443 kts 109°
2026-04-25 13:15 12.94307 -87.96626 34762 ft 443 kts 109°
2026-04-25 13:16 12.91762 -87.90876 34762 ft 443 kts 109°
2026-04-25 13:16 12.89236 -87.85167 34761 ft 443 kts 109°
2026-04-25 13:17 12.86690 -87.79420 34761 ft 443 kts 109°
2026-04-25 13:17 12.84134 -87.73680 34526 ft 443 kts 109°
2026-04-25 13:18 12.82851 -87.70807 34276 ft 443 kts 109°
2026-04-25 13:18 12.81569 -87.67935 33896 ft 443 kts 109°
2026-04-25 13:18 12.80287 -87.65053 32943 ft 447 kts 109°
2026-04-25 13:18 12.78989 -87.62133 31893 ft 453 kts 109°
2026-04-25 13:19 12.77673 -87.59176 30853 ft 458 kts 110°
2026-04-25 13:19 12.76345 -87.56199 29789 ft 462 kts 110°
2026-04-25 13:19 12.75002 -87.53195 28858 ft 463 kts 110°
2026-04-25 13:19 12.74118 -87.51230 28483 ft 457 kts 110°
2026-04-25 13:20 12.72353 -87.47308 27531 ft 449 kts 110°
2026-04-25 13:20 12.71075 -87.44461 26841 ft 443 kts 111°
2026-04-25 13:20 12.69802 -87.41617 26158 ft 436 kts 111°
2026-04-25 13:20 12.68549 -87.38819 25496 ft 428 kts 112°
2026-04-25 13:21 12.67319 -87.36072 24837 ft 420 kts 113°
2026-04-25 13:21 12.66115 -87.33376 24197 ft 413 kts 114°
2026-04-25 13:21 12.64933 -87.30721 23575 ft 407 kts 114°
2026-04-25 13:21 12.63763 -87.28104 22975 ft 400 kts 115°
2026-04-25 13:22 12.62613 -87.25535 22386 ft 395 kts 116°
2026-04-25 13:22 12.61479 -87.22999 21843 ft 388 kts 116°
2026-04-25 13:22 12.60364 -87.20505 21323 ft 383 kts 117°
2026-04-25 13:23 12.58179 -87.15627 20346 ft 372 kts 118°
2026-04-25 13:23 12.57120 -87.13273 19889 ft 367 kts 118°
2026-04-25 13:23 12.56060 -87.10914 19422 ft 363 kts 118°
2026-04-25 13:23 12.55011 -87.08578 18959 ft 359 kts 118°
2026-04-25 13:24 12.53977 -87.06268 18510 ft 357 kts 119°
2026-04-25 13:24 12.52946 -87.03957 18036 ft 356 kts 119°
2026-04-25 13:24 12.51913 -87.01646 17565 ft 357 kts 119°
2026-04-25 13:24 12.50878 -86.99331 17076 ft 358 kts 119°
2026-04-25 13:25 12.49842 -86.97012 16578 ft 359 kts 118°
2026-04-25 13:25 12.48803 -86.94688 16079 ft 360 kts 118°
2026-04-25 13:25 12.47761 -86.92360 15575 ft 360 kts 118°
2026-04-25 13:25 12.46717 -86.90027 15061 ft 361 kts 117°
2026-04-25 13:26 12.45673 -86.87691 14535 ft 362 kts 117°
2026-04-25 13:26 12.44631 -86.85353 14081 ft 361 kts 116°
2026-04-25 13:26 12.43584 -86.83011 13566 ft 362 kts 116°
2026-04-25 13:26 12.42533 -86.80665 13022 ft 363 kts 115°
2026-04-25 13:27 12.41494 -86.78345 12493 ft 364 kts 115°
2026-04-25 13:27 12.40442 -86.75991 11931 ft 364 kts 114°
2026-04-25 13:27 12.39389 -86.73634 11369 ft 364 kts 114°
2026-04-25 13:27 12.38335 -86.71282 10793 ft 364 kts 114°
2026-04-25 13:28 12.37284 -86.68943 10412 ft 357 kts 113°
2026-04-25 13:28 12.36934 -86.68167 10374 ft 352 kts 113°
2026-04-25 13:28 12.35287 -86.64505 10147 ft 331 kts 113°
2026-04-25 13:28 12.34344 -86.62403 10031 ft 319 kts 113°
2026-04-25 13:29 12.33433 -86.60369 9820 ft 312 kts 113°
2026-04-25 13:29 12.32538 -86.58370 9611 ft 307 kts 112°
2026-04-25 13:29 12.31650 -86.56391 9324 ft 306 kts 112°
2026-04-25 13:30 12.29874 -86.52436 8490 ft 305 kts 112°
2026-04-25 13:30 12.28989 -86.50468 8070 ft 304 kts 112°
2026-04-25 13:30 12.28108 -86.48505 7650 ft 303 kts 112°
2026-04-25 13:31 12.26361 -86.44614 6820 ft 299 kts 112°
2026-04-25 13:31 12.25505 -86.42712 6414 ft 297 kts 112°
2026-04-25 13:31 12.24645 -86.40799 6004 ft 295 kts 112°
2026-04-25 13:31 12.24019 -86.39406 5707 ft 294 kts 112°
2026-04-25 13:32 12.23138 -86.37446 5291 ft 291 kts 112°
2026-04-25 13:32 12.22298 -86.35580 4887 ft 288 kts 113°
2026-04-25 13:32 12.21149 -86.33908 4382 ft 291 kts 140°
2026-04-25 13:32 12.19362 -86.33093 3925 ft 290 kts 174°
2026-04-25 13:33 12.17414 -86.33254 3508 ft 274 kts 192°
2026-04-25 13:33 12.15549 -86.33234 3066 ft 263 kts 161°
2026-04-25 13:33 12.14153 -86.32207 2902 ft 241 kts 122°
2026-04-25 13:33 12.13889 -86.31714 2829 ft 235 kts 108°
2026-04-25 13:34 12.14229 -86.29225 2383 ft 210 kts 62°
2026-04-25 13:34 12.14799 -86.27895 2149 ft 196 kts 66°
2026-04-25 13:34 12.15062 -86.26596 1908 ft 179 kts 84°
2026-04-25 13:34 12.15048 -86.25381 1694 ft 164 kts 90°
2026-04-25 13:35 12.14961 -86.24271 1478 ft 151 kts 92°
2026-04-25 13:35 12.14859 -86.23221 1274 ft 147 kts 93°
2026-04-25 13:35 12.14751 -86.22204 1077 ft 144 kts 93°
2026-04-25 13:35 12.14645 -86.21190 877 ft 143 kts 93°
2026-04-25 13:36 12.14538 -86.20200 694 ft 141 kts 95°
2026-04-25 13:36 12.14423 -86.19204 500 ft 140 kts 94°
2026-04-25 13:36 12.14314 -86.18213 303 ft 141 kts 95°
2026-04-25 13:36 12.14207 -86.17253 204 ft 126 kts 95°
2026-04-25 13:37 12.14123 -86.16506 200 ft 82 kts 96°
2026-04-25 13:37 12.14080 -86.16105 202 ft 32 kts 96°
2026-04-25 13:37 12.14062 -86.15954 201 ft 20 kts 97°
2026-04-25 13:37 12.14047 -86.15803 207 ft 22 kts 95°
2026-04-25 13:38 12.14042 -86.15743 206 ft 0 kts 95°
2026-04-25 13:38 12.14051 -86.15728 207 ft 5 kts 66°
2026-04-25 13:38 12.14044 -86.15719 210 ft 1 kts 189°
2026-04-25 13:38 12.14048 -86.15811 208 ft 24 kts 274°
2026-04-25 13:39 12.14065 -86.15985 201 ft 26 kts 277°
2026-04-25 13:39 12.14087 -86.16172 207 ft 27 kts 276°
2026-04-25 13:39 12.14106 -86.16351 206 ft 22 kts 276°
2026-04-25 13:39 12.14124 -86.16513 200 ft 21 kts 276°
2026-04-25 13:40 12.14200 -86.16608 202 ft 17 kts 337°
2026-04-25 13:40 12.14279 -86.16682 206 ft 17 kts 272°
2026-04-25 13:40 12.14293 -86.16806 212 ft 19 kts 276°
2026-04-25 13:40 12.14309 -86.16948 204 ft 21 kts 276°
2026-04-25 13:41 12.14324 -86.17085 200 ft 8 kts 277°
2026-04-25 13:41 12.14348 -86.17103 200 ft 4 kts 359°
2026-04-25 13:41 12.14370 -86.17101 207 ft 3 kts
2026-04-25 13:41 12.14387 -86.17099 202 ft 2 kts
2026-04-25 13:42 12.14402 -86.17098 208 ft 0 kts